Hourly Data Report for October 21, 2015

All times are specified in Local Standard Time (LST). Add 1 hour to adjust for Daylight Saving Time where and when it is observed.

SAINT JOHN A
NEW BRUNSWICK

45°18'58.000" N
65°53'24.000" W
108.80 m
8104901
71609
YSJ

Download Data

Hourly Data (October 2015)
Hourly Data Report for October 21, 2015
Temp Definition
°C
Dew Point Temp Definition
°C
Rel Hum Definition
%
Wind Dir Definition
10's deg

Wind Spd Definition
km/h
Visibility Definition
km
Stn Press Definition
kPa
Hmdx Definition


Wind Chill Definition


Weather Definition


TIME
00:00 Legend Double Dagger 7.9 2.2 67 34 15 24.1 100.54     LegendNANA
01:00 Legend Double Dagger 5.6 -1.1 62 33 13 24.1 100.61     LegendNANA
02:00 Legend Double Dagger 3.8 -1.0 71 30 7 24.1 100.71     Mainly Clear
03:00 Legend Double Dagger 3.4 -2.8 64 31 10 24.1 100.77     LegendNANA
04:00 Legend Double Dagger 2.7 -3.2 65 34 18 24.1 100.84     LegendNANA
05:00 Legend Double Dagger 1.7 -5.0 61 34 13 24.1 100.92     Clear
06:00 Legend Double Dagger -0.1 -4.9 70 31 10 24.1 101.00   -3 LegendNANA
07:00 Legend Double Dagger -3.2 -5.2 86 29 4 24.1 101.08   -5 LegendNANA
08:00 Legend Double Dagger 0.4 -2.5 81   0 24.1 101.17     Mainly Clear
09:00 Legend Double Dagger 4.5 -3.8 55 31 14 24.1 101.20     LegendNANA
10:00 Legend Double Dagger 6.4 -5.0 44 33 20 24.1 101.23     LegendNANA
11:00 Legend Double Dagger 7.0 -6.0 39 32 22 24.1 101.23     Mostly Cloudy
12:00 Legend Double Dagger 8.2 -6.7 34 32 22 24.1 101.21     LegendNANA
13:00 Legend Double Dagger 9.3 -5.8 34 31 17 24.1 101.18     LegendNANA
14:00 Legend Double Dagger 10.2 -7.1 29 30 19 24.1 101.16     Mostly Cloudy
15:00 Legend Double Dagger 9.8 -6.5 31 32 15 24.1 101.18     LegendNANA
16:00 Legend Double Dagger 9.2 -6.6 32 32 14 24.1 101.23     LegendNANA
17:00 Legend Double Dagger 8.0 -6.9 34 31 9 24.1 101.30     Mostly Cloudy
18:00 Legend Double Dagger 3.4 -5.0 54 33 6 24.1 101.35     LegendNANA
19:00 Legend Double Dagger 0.7 -4.0 71 36 2 24.1 101.46     LegendNANA
20:00 Legend Double Dagger -1.7 -3.3 89 36 1 24.1 101.49   -2 Mainly Clear
21:00 Legend Double Dagger -2.2 -3.8 89 16 4 24.1 101.53   -4 LegendNANA
22:00 Legend Double Dagger -2.6 -4.0 90 0 1 24.1 101.55   -3 LegendNANA
23:00 Legend Double Dagger -3.4 -4.4 93 32 3 24.1 101.54   -5 Clear

Notes on Data Quality.

Legend

  • E = Estimated
  • M = Missing
  • NA = Not Available
  • ‡ = Partner data that is not subject to review by the National Climate Archives
Date modified: